Date String (YYYY-MM-DD hh:mm:ss) UTC,Instrument flags,Ambient pressure (hPa),Sample flow (lpm),Bypass flow (lpm),Sample temperature (°C),Ambient temperature (°C),ASC tube jacket temperature (°C),LED temperature (°C),Box temperature (°C),Sample RH (%),Span deviation,Mass concentration (μg/m³),Mass concentration (μg/m³),Mass concentration (μg/m³)
DateTimeUTC,F1_M11,P_M11,Q1_M11,Q2_M11,T1_M11,T2_M11,T3_M11,T4_M11,T5_M11,U1_M11,ZSPAN_M11,X0_M11,X2_M11,X1_M11
2023-04-30 08:00:00,,0832.1,5.00,0.00,28.4,26.5,00.0,36.9,29.8,13.5,0000.0,0019.82,0005.17,0002.60
2023-04-30 08:01:00,,0832.1,5.01,0.00,28.3,26.5,00.0,36.9,29.8,13.5,0000.0,0019.94,0005.17,0002.61
2023-04-30 08:02:00,,0832.1,5.00,0.00,28.3,26.5,00.0,36.9,29.7,13.5,0000.0,0020.40,0005.13,0002.61
2023-04-30 08:03:00,,0832.1,5.01,0.00,28.3,26.4,00.0,36.9,29.7,13.6,0000.0,0021.34,0005.10,0002.60
2023-04-30 08:04:00,,0832.1,5.00,0.00,28.2,26.3,00.0,36.9,29.6,13.6,0000.0,0023.04,0005.12,0002.61
2023-04-30 08:05:00,,0832.1,5.00,0.00,28.2,26.3,00.0,36.8,29.6,13.7,0000.0,0023.21,0005.00,0002.62
2023-04-30 08:06:00,,0832.1,5.01,0.00,28.2,26.2,00.0,36.8,29.6,13.7,0000.0,0022.90,0004.99,0002.64
2023-04-30 08:07:00,,0832.0,5.01,0.00,28.1,26.1,00.0,36.8,29.6,13.8,0000.0,0021.98,0005.05,0002.64
2023-04-30 08:08:00,,0832.0,5.00,0.00,28.1,26.1,00.0,36.8,29.5,13.9,0000.0,0022.31,0005.10,0002.63
2023-04-30 08:09:00,,0832.1,5.00,0.00,28.0,26.0,00.0,36.7,29.5,14.0,0000.0,0021.67,0005.10,0002.65
2023-04-30 08:10:00,,0832.0,5.01,0.00,28.0,26.0,00.0,36.7,29.4,14.2,0000.0,0021.20,0005.07,0002.66
2023-04-30 08:11:00,,0832.0,5.00,0.00,28.0,25.9,00.0,36.7,29.4,14.2,0000.0,0021.37,0004.99,0002.65
2023-04-30 08:12:00,,0832.0,5.00,0.00,27.9,25.9,00.0,36.6,29.4,14.2,0000.0,0021.06,0004.95,0002.65
2023-04-30 08:13:00,,0832.0,5.00,0.00,27.9,25.9,00.0,36.6,29.3,14.4,0000.0,0020.57,0004.95,0002.65
2023-04-30 08:14:00,,0832.0,5.00,0.00,27.9,25.8,00.0,36.6,29.3,14.4,0000.0,0019.44,0004.92,0002.64
2023-04-30 08:15:00,,0831.9,5.01,0.00,27.8,25.8,00.0,36.5,29.3,14.4,0000.0,0017.59,0004.90,0002.65
2023-04-30 08:16:00,,0831.9,5.00,0.00,27.8,25.8,00.0,36.5,29.2,14.5,0000.0,0016.64,0004.93,0002.64
2023-04-30 08:17:00,,0831.9,5.02,0.00,27.7,25.7,00.0,36.5,29.2,14.5,0000.0,0017.22,0004.90,0002.62
2023-04-30 08:18:00,,0831.9,5.00,0.00,27.7,25.7,00.0,36.4,29.1,14.5,0000.0,0017.06,0004.85,0002.61
2023-04-30 08:19:00,,0831.8,4.99,0.00,27.7,25.7,00.0,36.4,29.1,14.7,0000.0,0016.96,0004.86,0002.61
2023-04-30 08:20:00,,0831.8,4.99,0.00,27.6,25.7,00.0,36.4,29.1,14.7,0000.0,0016.90,0004.86,0002.60
2023-04-30 08:21:00,,0831.8,5.00,0.00,27.6,25.6,00.0,36.3,29.0,14.7,0000.0,0016.82,0004.89,0002.61
2023-04-30 08:22:00,,0831.8,4.99,0.00,27.6,25.6,00.0,36.3,29.0,14.8,0000.0,0017.41,0004.97,0002.62
2023-04-30 08:23:00,,0832.1,5.00,0.00,27.6,25.6,00.0,36.3,29.0,14.8,0000.0,0017.59,0005.01,0002.61
2023-04-30 08:24:00,,0832.1,5.01,0.00,27.5,25.5,00.0,36.2,28.9,14.9,0000.0,0016.58,0004.95,0002.62
2023-04-30 08:25:00,,0831.8,5.01,0.00,27.5,25.5,00.0,36.2,28.9,14.8,0000.0,0016.34,0004.93,0002.63
2023-04-30 08:26:00,,0831.7,5.00,0.00,27.5,25.5,00.0,36.2,28.9,14.9,0000.0,0016.61,0004.92,0002.63
2023-04-30 08:27:00,,0831.7,4.99,0.00,27.4,25.4,00.0,36.1,28.9,14.9,0000.0,0016.59,0004.93,0002.66
2023-04-30 08:28:00,,0831.7,5.00,0.00,27.4,25.4,00.0,36.1,28.9,15.0,0000.0,0015.81,0004.90,0002.67
2023-04-30 08:29:00,,0831.7,4.99,0.00,27.4,25.4,00.0,36.1,28.8,15.0,0000.0,0015.10,0004.87,0002.70
2023-04-30 08:30:00,,0831.7,5.00,0.00,27.3,25.4,00.0,36.0,28.8,15.1,0000.0,0014.75,0004.84,0002.73
2023-04-30 08:31:00,,0831.7,5.01,0.00,27.3,25.3,00.0,36.0,28.8,15.2,0000.0,0015.18,0004.88,0002.76
2023-04-30 08:32:00,,0831.7,4.98,0.00,27.3,25.3,00.0,36.0,28.7,15.2,0000.0,0015.27,0004.86,0002.79
2023-04-30 08:33:00,,0831.7,5.02,0.00,27.3,25.3,00.0,35.9,28.7,15.2,0000.0,0014.51,0004.83,0002.80
2023-04-30 08:34:00,,0831.7,5.00,0.00,27.3,25.3,00.0,35.9,28.7,15.2,0000.0,0013.91,0004.78,0002.81
2023-04-30 08:35:00,,0831.7,4.99,0.00,27.2,25.3,00.0,35.9,28.7,15.2,0000.0,0013.85,0004.83,0002.83
2023-04-30 08:36:00,,0831.7,4.99,0.00,27.2,25.2,00.0,35.9,28.6,15.2,0000.0,0013.62,0004.89,0002.84
2023-04-30 08:37:00,,0831.7,5.01,0.00,27.2,25.2,00.0,35.8,28.6,15.3,0000.0,0013.08,0004.91,0002.83
2023-04-30 08:38:00,,0831.7,5.01,0.00,27.1,25.2,00.0,35.8,28.6,15.3,0000.0,0013.85,0004.98,0002.83
2023-04-30 08:39:00,,0831.6,5.00,0.00,27.1,25.1,00.0,35.8,28.6,15.3,0000.0,0014.86,0005.00,0002.82
2023-04-30 08:40:00,,0831.6,5.00,0.00,27.1,25.1,00.0,35.7,28.6,15.3,0000.0,0015.40,0005.01,0002.79
2023-04-30 08:41:00,,0831.6,5.00,0.00,27.1,25.1,00.0,35.7,28.6,15.3,0000.0,0015.95,0004.93,0002.77
2023-04-30 08:42:00,,0831.6,5.00,0.00,27.0,25.1,00.0,35.7,28.5,15.3,0000.0,0015.33,0004.85,0002.74
2023-04-30 08:43:00,,0831.6,5.00,0.00,27.0,25.1,00.0,35.7,28.4,15.4,0000.0,0015.17,0004.91,0002.74
2023-04-30 08:44:00,,0831.6,5.00,0.00,27.0,25.0,00.0,35.6,28.4,15.4,0000.0,0015.28,0004.94,0002.74
2023-04-30 08:45:00,,0831.5,5.00,0.00,27.0,25.0,00.0,35.6,28.4,15.4,0000.0,0015.75,0004.95,0002.75
2023-04-30 08:46:00,,0831.5,5.00,0.00,26.9,25.0,00.0,35.6,28.4,15.4,0000.0,0015.76,0004.87,0002.73
2023-04-30 08:47:00,,0831.5,5.00,0.00,26.9,25.0,00.0,35.6,28.4,15.4,0000.0,0015.64,0004.81,0002.73
2023-04-30 08:48:00,,0831.6,5.01,0.00,26.9,25.0,00.0,35.5,28.4,15.4,0000.0,0015.46,0004.79,0002.72
2023-04-30 08:49:00,,0831.5,5.01,0.00,26.9,25.0,00.0,35.5,28.4,15.5,0000.0,0014.83,0004.73,0002.72
2023-04-30 08:50:00,,0831.5,4.99,0.00,26.9,25.0,00.0,35.5,28.4,15.5,0000.0,0013.94,0004.72,0002.73
2023-04-30 08:51:00,,0831.5,5.00,0.00,26.9,24.9,00.0,35.5,28.4,15.5,0000.0,0014.19,0004.70,0002.75
2023-04-30 08:52:00,,0831.4,5.00,0.00,26.8,24.9,00.0,35.4,28.3,15.5,0000.0,0013.89,0004.73,0002.76
2023-04-30 08:53:00,,0831.4,4.99,0.00,26.8,24.9,00.0,35.4,28.3,15.5,0000.0,0014.68,0004.78,0002.77
2023-04-30 08:54:00,,0831.4,5.00,0.00,26.8,24.9,00.0,35.4,28.3,15.5,0000.0,0015.19,0004.74,0002.76
2023-04-30 08:55:00,,0831.5,5.00,0.00,26.8,24.9,00.0,35.4,28.3,15.5,0000.0,0015.60,0004.67,0002.75
2023-04-30 08:56:00,,0831.5,5.01,0.00,26.8,24.9,00.0,35.4,28.3,15.5,0000.0,0016.23,0004.67,0002.76
2023-04-30 08:57:00,,0831.4,4.99,0.00,26.8,24.9,00.0,35.3,28.3,15.6,0000.0,0016.72,0004.72,0002.75
2023-04-30 08:58:00,,0831.5,5.01,0.00,26.7,24.9,00.0,35.3,28.3,15.6,0000.0,0016.79,0004.73,0002.73
2023-04-30 08:59:00,,0831.5,5.01,0.00,26.7,24.9,00.0,35.3,28.2,15.6,0000.0,0017.09,0004.75,0002.73
